Weather in Beira

Mozambique     19˚46′05″S   34˚52′19″E
temp.,
°C
wind,
m/s
gust,
m/s
humid.,
%
clouds,
%
prec.,
mm/h
press.,
hPa
HPBL,
m
28 november, sat
sat2823:00+27˚se4879100 0.2 1016530
02:00+26˚se498761 3.1 1015422
05:00+25˚se488996 4.2 1016463
08:00+28˚ese567495 5.3 1017960
11:00+30˚ese566371 1.3 10151098
14:00+30˚se666255 1.3 10131039
17:00+28˚se567250 0.0 1012842
20:00+26˚ese378437 0.0 1014498
29 november, sun
sun2923:00+26˚ese368479 0.0 1013414
02:00+25˚e128748 0.1 1012189
05:00+25˚n228476 0.1 1012110
08:00+29˚nne126188 0.1 1014902
11:00+35˚sse114478 0.0 10121170
14:00+31˚ese555767 0.0 1009466
17:00+29˚ese586899 0.0 1008470
20:00+26˚e497986 0.0 1010404
30 november, mon
mon3023:00+26˚e48870 0.0 1011520
02:00+25˚e248938 0.0 1011277
05:00+26˚ese248198 0.1 1012319
08:00+28˚ese346999 0.3 1014984
11:00+29˚se556497 0.1 1012923
14:00+29˚se556396 0.2 1010847
17:00+28˚ese467089 0.0 1009611
20:00+26˚e378087 0.0 1011426
1 december, tue
tue123:00+24˚e36831 0.0 1011238
02:00+23˚n239035 0.0 1010115
05:00+23˚nne2392100 0.0 1011161
08:00+28˚nnw126679 0.0 1012717
11:00+33˚w224566 0.0 10111207
14:00+32˚ssw234983 0.0 1008789
17:00+29˚ese2265100 0.0 1007407
20:00+26˚ene3675100 0.0 1008241
2 december, wed
wed223:00+26˚ne3781100 0.0 1009381
02:00+25˚ne3784100 0.0 1009411
05:00+24˚nne258999 0.0 1010267
08:00+27˚n257891 0.4 1012547
11:00+27˚wsw337998 1.3 1011323
14:00+27˚s478299 4.8 1009478
17:00+26˚se6987100 0.0 1009638
20:00+26˚se4787100 0.2 1012622